Venezia / Tessera - Marco Polo Airport

Jump to: basic info | weather | frequencies | runways | comments

Related pages: nearby airports | nearby navaids | notams | map

Basic information (top)

Codes: VCE LIPZ
Location: lon 45.505299, lat 12.351900, elev 7 ft / 2 m msl
Status: large_airport
Scheduled airline service: yes
Links: Wikipedia Mobile

Weather (top)

Current conditions (rec'd 2014/12/18 00:20Z):

LIPZ 180020Z 00000KT 9999 BKN030 09/07 Q1014

Airport forecast (rec'd 2014/12/17 00:22Z):

TAF LIPZ 172300Z 1800/1906 VRB04KT 9999 SCT020 
      TEMPO 1800/1808 2000 BR 
      BECMG 1815/1817 2000 BR 
      BECMG 1820/1822 0800 FG

Frequencies (top)

Verify before use: may be inaccurate or out of date.

APP: 118.9 MHz (APP)
ATIS: 122.225 MHz (ATIS)
GND: 121.7 MHz (GND)
TWR: 120.2 MHz (TWR)

Runways (top)

04L/22R: 9,121 x 148 ft (2,780 x 45 m) — paved — lighted — threshold 04L displaced 308 ft (94 m)

04R/22L: 10,827 x 148 ft (3,300 x 45 m) — paved — lighted

Latest comments (top)

Not recomended for general aviation -smal plane: landing for less than 1 ton MTOW 2 ... [read]

flight cancellation dublin: Trying to find reason for today flight ... [read]

More... (top)

See also NOTAMs and nearby airports and navaids, or visit the Venezia / Tessera - Marco Polo Airport page at the main OurAirports website..